Location: Bethel Church
(38.0159°N, 88.7292°W)
Time: 02:16:53
(UTC+00:00)

CZ-4B R/B - Pass Details

Date: 08 December 2021
Orbit: 809 x 881 km, 99.1° (Epoch: 21 January)

Event Time Altitude Azimuth Distance (km) Brightness Sun altitude
Rises 23:30:47 0° 145° (SE) 3,379 6.2 -10.8°
Reaches altitude 10° 23:33:15 10° 138° (SE) 2,437 5.4 -11.2°
Maximum altitude 23:38:16 41° 70° (ENE) 1,184 3.5 -12.2°
Drops below altitude 10° 23:43:14 10° 1° (N) 2,415 5.4 -13.1°
Sets 23:45:40 0° 355° (N) 3,345 6.2 -13.5°
